Vertical_Velocity
-12 29 7 -5 5 14 8 -2 -1 -4 1 1 4 -7 -3 0 -1 -2 1 -0 -0 0 -2 -2 -1 0 -1
-7 5 12 1 -2 -5 3 5 -2 -0 -0 7 3 2 -11 -2 -3 -0 1 2 -1 -0 -2 1 -1 1 -0
9 23 15 6 19 8 -2 -1 4 -2 3 2 4 2 1 -4 -5 -6 -1 1 0 -1 -0 -0 1 -2 -1
-2 -7 6 7 16 -9 14 11 0 4 3 -4 4 2 0 -2 -9 -1 -0 0 -1 -1 -1 -2 -1 -1 -1
-6 14 25 -1 -2 -8 6 -3 -1 4 -4 2 4 5 2 3 -3 -1 1 3 2 0 -2 0 -2 1 -2
1 -7 20 6 7 -3 1 4 -0 29 7 -1 -2 -2 -2 2 0 0 -3 1 1 1 -2 1 -1 -2 0
-7 -1 1 27 12 14 3 -11 -15 -13 -4 6 -3 -2 -4 4 -3 -0 3 -2 1 -1 1 -0 2 0 1
-4 0 -3 16 20 35 -28 -10 40 35 18 -5 8 -7 -6 -1 -2 -3 -0 -0 -0 -1 -2 -0 2 1 -2
0 -3 1 3 9 10 22 12 12 0 -3 6 -2 14 -4 -2 1 -0 1 -0 0 -4 0 1 1 -4 -2
-1 -11 -6 -1 6 -4 5 23 14 17 2 6 -2 -12 7 -8 -1 1 4 2 3 -0 0 -0 3 1 -2
1 -1 -1 -6 5 -4 10 -1 18 4 -16 -4 -8 -3 7 -6 -5 -1 2 0 1 4 10 5 1 -1 -1
-2 -6 -8 -11 -4 0 -0 11 1 7 2 -12 -4 -7 -13 -3 -9 -6 -1 5 5 -7 -3 2 3 3 2
-3 -2 -3 7 2 3 4 4 12 7 6 11 2 4 -0 2 -10 -13 -2 -12 6 0 1 0 -7 -7 -5
-5 -2 -2 -4 -8 1 -1 6 7 7 12 6 -2 6 -2 1 3 5 3 -25 -12 -6 2 6 4 -1 3
2 2 -4 -3 -5 2 -3 5 6 -0 6 5 19 5 16 12 3 -1 -3 -5 2 2 -1 -1 -2 -3 1
2 -0 -3 -9 -2 -2 9 0 6 3 2 3 2 6 14 12 16 9 6 3 1 -3 9 6 2 -2 -1
-5 -3 3 -2 3 -2 -9 16 -0 12 4 -6 3 1 6 -8 -5 2 -3 2 -1 -1 3 -5 -1 -9 -3
Height
1456 1456 1460 1472 1484 1492 1500 1508 1516 1525 1530 1533 1538 1544 1549 1553 1556 1559 1563 1566 1569 1571 1573 1576 1577 1577 1577
1450 1452 1453 1464 1475 1485 1494 1502 1510 1519 1525 1530 1534 1538 1544 1549 1554 1557 1561 1564 1566 1569 1572 1574 1575 1576 1576
1444 1448 1452 1455 1468 1478 1488 1496 1505 1513 1521 1527 1531 1535 1540 1545 1549 1553 1558 1561 1564 1567 1570 1572 1573 1574 1575
1441 1444 1447 1451 1458 1468 1481 1489 1497 1508 1516 1522 1527 1532 1537 1541 1544 1549 1553 1557 1560 1563 1567 1569 1571 1572 1573
1436 1438 1445 1449 1452 1459 1472 1481 1491 1499 1506 1515 1521 1526 1532 1536 1541 1547 1551 1553 1556 1559 1563 1566 1568 1570 1571
1428 1433 1435 1440 1448 1453 1463 1472 1482 1491 1497 1506 1513 1518 1524 1529 1534 1542 1547 1550 1553 1556 1559 1562 1564 1566 1567
1419 1425 1431 1436 1442 1447 1452 1462 1470 1479 1488 1496 1504 1510 1515 1522 1530 1536 1542 1546 1549 1553 1555 1558 1561 1562 1564
1411 1416 1424 1427 1434 1441 1444 1455 1465 1471 1478 1485 1492 1498 1506 1514 1523 1529 1535 1540 1545 1549 1552 1554 1556 1559 1560
1405 1407 1415 1421 1425 1433 1440 1446 1453 1461 1468 1477 1482 1492 1497 1505 1513 1522 1528 1533 1538 1543 1548 1551 1554 1554 1555
1396 1400 1406 1413 1419 1422 1431 1438 1440 1453 1458 1468 1473 1482 1489 1496 1503 1513 1519 1525 1531 1536 1541 1545 1549 1550 1551
1388 1392 1398 1402 1409 1415 1420 1426 1434 1436 1443 1455 1461 1470 1480 1483 1491 1500 1507 1515 1521 1528 1533 1536 1540 1543 1547
1379 1382 1387 1392 1400 1407 1412 1417 1423 1433 1439 1443 1451 1454 1464 1472 1478 1488 1496 1504 1510 1517 1522 1528 1532 1536 1539
1367 1369 1377 1384 1390 1396 1405 1410 1416 1426 1429 1434 1439 1444 1451 1458 1463 1472 1484 1491 1498 1506 1512 1516 1520 1525 1529
1358 1362 1369 1375 1379 1386 1393 1402 1406 1415 1419 1427 1432 1438 1442 1450 1457 1462 1471 1475 1484 1494 1503 1509 1513 1517 1521
1348 1353 1358 1364 1369 1376 1382 1392 1396 1401 1408 1418 1424 1429 1438 1440 1447 1454 1460 1467 1472 1481 1490 1496 1501 1507 1510
1341 1346 1350 1355 1360 1368 1375 1377 1385 1390 1397 1407 1411 1421 1429 1433 1440 1443 1451 1459 1465 1471 1479 1484 1488 1495 1500
1331 1335 1340 1345 1353 1357 1363 1368 1375 1381 1384 1391 1398 1407 1414 1419 1431 1436 1443 1449 1455 1462 1468 1472 1477 1484 1489